sat.trackr.live / text

‹ back to catalog

STARLINK-5626

NORAD 55435 · 2023-014AW

PAYLOAD ACTIVE UNKNOWN

§ Identity

Operator
Country
US
Launch date
2023-01-31
Launch site
AFWTR
Launch vehicle
Mass (kg)
RCS (m²)

Purposes: comms

External: N2YO · Heavens-Above · Gunter

§ Orbital elements

Epoch: 2026-09-20T14:10:07.869504Z

Period
96.11 min
Inclination
69.9995°
Eccentricity
0.0003664
Mean motion
14.98330233 rev/d
Perigee alt
569.5 km
Apogee alt
574.6 km
Semi-major
6,950.2 km
B*
4.0846e-5
RAAN
333.0161°
Arg perigee
269.6200°
Mean anomaly
90.4539°
Rev number
20,026

§ Raw data

STARLINK-56261 55435U 23014AW  26263.59036886  .00000394  00000+0  40846-4 0  99972 55435  69.9995 333.0161 0003664 269.6200  90.4539 14.98330233200268

JSON: /api/v1/satellites/55435 · /tle

For live sub-satellite position, see the globe view (requires WebGL).

§ Visibility from observer

Set your observer location to see the next 7 days of passes ≥ 10°. The values pass through the URL so the page stays shareable.

No JS? Fill the form by hand. The geolocation button needs JavaScript.